SL-4 R/B

Last updated on Thu Nov 21 2024 00:02:13 GMT+0000 (Coordinated Universal Time)

1 39679U 14021B 24325.50604446 .00020341 00000+0 65127-3 0 9990 2 39679 51.6133 106.0112 0127304 192.1416 167.6486 15.24801834583579

Satellite not in orbit